Location: Devore Heights
(34.2372°N, 117.4156°W)
Time: 09:08:22
(UTC+00:00)

A-11 Canister half - Pass Details

Date: 19 September 2024
Orbit: 1515 x 1684 km, 47.2° (Epoch: 07 October)

Event Time Altitude Azimuth Distance (km) Brightness Sun altitude
Rises 07:23:11 0° 305° (NW) 4,664 11.9 -54.2°
Reaches altitude 10° 07:26:13 10° 307° (NW) 3,676 11.2 -54.3°
Enters shadow 07:27:36 16° 307° (NW) 3,235 10.9 -54.3°
Maximum altitude 07:35:29 83° 35° (NE) 1,533 - -54.5°
Drops below altitude 10° 07:44:52 10° 124° (SE) 3,719 - -54.5°
Sets 07:47:57 0° 125° (SE) 4,720 - -54.5°
